STARLINK-35856

Last updated on Fri Dec 19 2025 00:02:09 GMT+0000 (Coordinated Universal Time)

1 67013U 25293L 25351.83335648 -.00969807 30327-3 -21460-2 0 9998 2 67013 69.9932 309.0161 0004054 266.1783 129.1993 15.97773827 2386
UTC large
Height (km)
Speed (km/s)
/
Latitude / Longitude
Inclination (degrees)
Orbital Period (minutes)
Azimuth
Elevation
Range (km)
Doppler Factor

Next 0 passes for location: London (51.5072 / 0.1276)

Sorry there are no passes over London.